Weather in Levashi

Russia / Republic of Dagestan     42°25′54″N   47°19′22″E
temp.,
°C
wind,
m/s
gust,
m/s
humid.,
%
clouds,
%
prec.,
mm/h
press.,
hPa
HPBL,
m
10 august, wed
wed1000:00+12sw22830 0.0 101713
03:00+11sw22850 0.0 101715
06:00+13ssw22790 0.0 101734
09:00+20ese23490 0.0 1014814
12:00+23e44400 0.0 10131631
15:00+24ese554113 0.0 10111504
18:00+20ese34560 0.0 1011154
21:00+15sse34650 0.0 101344
11 august, thu
thu1100:00+15s32680 0.0 101223
03:00+14s32700 0.0 101221
06:00+15s33700 0.0 101250
09:00+23ese44470 0.0 1010689
12:00+26se66380 0.0 10091316
15:00+26ese77420 0.0 10081002
18:00+21ese35710 0.7 1010178
21:00+17se33840 0.9 101236
12 august, fri
fri1200:00+17s22800 0.0 101315
03:00+16sw22750 0.0 101315
06:00+17s22700 0.0 101430
09:00+23ese23500 0.0 1013695
12:00+26e44390 0.0 10121374
15:00+25ese56490 1.0 10121023
18:00+21ese46630 1.1 1014279
21:00+16sse33770 1.5 101640
13 august, sat
sat1300:00+15s22770 0.3 101520
03:00+15s22812 2.6 101616
06:00+16s22760 0.1 101642
09:00+22ese34470 0.3 1014709
12:00+26ese55340 0.0 10121402
15:00+25ese77392 0.3 10121146
18:00+20ese36579 0.4 1013280
21:00+16sse33683 0.5 101538
14 august, sun
sun1400:00+16s22671 0.0 101421
03:00+15ssw22620 0.0 101415
06:00+16ssw22600 0.0 101424
09:00+23se23410 0.0 1012641
12:00+27ese44320 0.0 10101381
15:00+27ese77310 0.0 10101128
18:00+22ese45480 0.0 1012150
21:00+18sse34520 0.0 101343